This is the latest recevied weather packets stored in our database for station/object DK6GC-10. If no packets are shown the sender has not sent any weather packets the latest 10 day(s).
| Time | Temp. | Humidity | Pressure | Rain* | Wind** | Luminosity | Snow |
|---|---|---|---|---|---|---|---|
| 1787967016 | 16.67° C | 84% | 1018.4 hPa | - | - | - | - |
| 1787966116 | 16.11° C | 85% | 1018.3 hPa | - | - | - | - |
| 1787965216 | 16.11° C | 89% | 1018.4 hPa | - | - | - | - |
| 1787964316 | 16.67° C | 91% | 1018.4 hPa | - | - | - | - |
| 1787963416 | 16.67° C | 93% | 1018.5 hPa | - | - | - | - |
| 1787962515 | 16.67° C | 92% | 1018.4 hPa | - | - | - | - |
| 1787961621 | 17.22° C | 91% | 1018.6 hPa | - | - | - | - |
| 1787960720 | 17.78° C | 89% | 1018.7 hPa | - | - | - | - |
| 1787959820 | 17.22° C | 90% | 1018.6 hPa | - | - | - | - |
| 1787958920 | 17.78° C | 89% | 1018.4 hPa | - | - | - | - |
| 1787958020 | 18.33° C | 87% | 1018.5 hPa | - | - | - | - |
| 1787957119 | 17.78° C | 87% | 1018.3 hPa | - | - | - | - |
| 1787956219 | 17.78° C | 84% | 1018.2 hPa | - | - | - | - |
| 1787955319 | 18.33° C | 84% | 1018 hPa | - | - | - | - |
| 1787954418 | 18.89° C | 82% | 1018.1 hPa | - | - | - | - |
| 1787953518 | 18.89° C | 78% | 1018 hPa | - | - | - | - |
| 1787952618 | 18.89° C | 74% | 1017.9 hPa | - | - | - | - |
| 1787951718 | 18.89° C | 80% | 1017.6 hPa | - | - | - | - |
| 1787950818 | 18.89° C | 80% | 1017.4 hPa | - | - | - | - |
| 1787949917 | 19.44° C | 80% | 1017.3 hPa | - | - | - | - |
| 1787949017 | 19.44° C | 81% | 1017 hPa | - | - | - | - |
| 1787948117 | 19.44° C | 79% | 1016.9 hPa | - | - | - | - |
| 1787947217 | 20° C | 75% | 1016.6 hPa | - | - | - | - |
| 1787946317 | 20° C | 78% | 1016.3 hPa | - | - | - | - |
| 1787945417 | 20° C | 78% | 1016.4 hPa | - | - | - | - |
* Rain since midnight (hover to see other rain measurements)
** Current wind speed in m/s (hover to see current wind gust speed)